Weather History for KPAM - July, 2013

Change the Weather History Date:

Wednesday, July 10, 2013

  Actual Average Record
Temperature  
Mean Temperature 81 °F -  
Max Temperature 87 °F 86 °F 93 °F (2001)
Min Temperature 75 °F 73 °F 71 °F (2006)
Cooling Degree Days 16    
Growing Degree Days 31 (Base 50)    
Moisture  
Dew Point 74 °F    
Average Humidity 82    
Maximum Humidity 94    
Minimum Humidity 63    
Precipitation  
Precipitation 0.00 in - - ()
Sea Level Pressure  
Sea Level Pressure 30.07 in    
Wind  
Wind Speed 3 mph (NNW)    
Max Wind Speed 10 mph    
Max Gust Speed -    
Visibility 10 miles    
Events      
Averages and records for this station are not official NWS values.
T = Trace of Precipitation, MM = Missing Value Source: NWS Daily Summary

Daily Weather History Graph

Daily Weather History Graph

Search for Another Location

Airport or City:

Trip Planner

Search our weather history database for the weather conditions in past years. The results will help you decide how hot, cold, wet, or windy it might be!

Date:

Astronomy

Jul. 10, 2013 Rise Set
Actual Time 5:48 AM CDT 7:46 PM CDT
Civil Twilight 5:21 AM CDT 8:13 PM CDT
Nautical Twilight 4:48 AM CDT 8:46 PM CDT
Astronomical Twilight 4:13 AM CDT 9:21 PM CDT
Moon 7:56 AM CDT (7/10) 9:11 PM CDT (7/10)
Length of Visible Light 14h 51m
Length of Day
13h 57m
Waxing Crescent, 5% of the Moon is Illuminated
Jul 10
Waxing Crescent
Jul 15
First Quarter
Jul 22
Full
Jul 29
Last Quarter
Aug 6
New

Hourly Weather History & Observations

Time (CDT) Temp. Heat Index Dew Point Humidity Pressure Visibility Wind Dir Wind Speed Gust Speed Precip Events Conditions
12:58 AM 76.8 °F - 74.7 °F 93% 30.11 in 10.0 mi Calm Calm - N/A   Clear
1:58 AM 75.9 °F - 74.1 °F 94% 30.09 in 10.0 mi Calm Calm - N/A   Clear
2:58 AM 76.3 °F - 74.5 °F 94% 30.08 in 10.0 mi North 2.3 mph - N/A   Clear
3:58 AM 76.3 °F - 74.3 °F 94% 30.08 in 10.0 mi NNW 1.2 mph - N/A   Clear
4:58 AM 76.5 °F - 74.3 °F 93% 30.08 in 10.0 mi NW 4.6 mph - N/A   Clear
5:58 AM 76.3 °F - 73.6 °F 91% 30.10 in 10.0 mi Calm Calm - N/A   Scattered Clouds
6:58 AM 78.6 °F - 74.7 °F 88% 30.11 in 10.0 mi North 4.6 mph - N/A   Partly Cloudy
7:58 AM 81.7 °F 87.3 °F 73.9 °F 77% 30.12 in 10.0 mi North 5.8 mph - N/A   Scattered Clouds
8:58 AM 84.4 °F 91.0 °F 73.4 °F 69% 30.11 in 10.0 mi North 3.5 mph - N/A   Scattered Clouds
9:58 AM 85.5 °F 92.2 °F 72.9 °F 66% 30.11 in 10.0 mi NW 5.8 mph - N/A   Scattered Clouds
10:58 AM 87.4 °F 95.3 °F 73.6 °F 63% 30.11 in 10.0 mi North 2.3 mph - N/A   Scattered Clouds
11:58 AM 87.8 °F 98.1 °F 75.7 °F 67% 30.09 in 10.0 mi West 10.4 mph - N/A   Scattered Clouds
12:58 PM 85.8 °F 95.1 °F 75.4 °F 71% 30.07 in 10.0 mi WSW 10.4 mph - N/A   Mostly Cloudy
1:58 PM 85.1 °F 93.7 °F 75.0 °F 72% 30.05 in 10.0 mi WSW 10.4 mph - N/A   Mostly Cloudy
2:58 PM 86.5 °F 95.5 °F 75.0 °F 68% 30.02 in 10.0 mi WSW 10.4 mph - N/A   Partly Cloudy
3:58 PM 84.0 °F 91.2 °F 73.9 °F 72% 30.03 in 10.0 mi West 9.2 mph - N/A   Mostly Cloudy
4:58 PM 82.9 °F 89.4 °F 73.9 °F 74% 30.05 in 10.0 mi West 6.9 mph - N/A   Clear
5:58 PM 81.0 °F 87.3 °F 76.1 °F 85% 30.05 in 10.0 mi NW 6.9 mph - 0.00 in   Light Drizzle
6:58 PM 78.1 °F - 73.4 °F 85% 30.04 in 10.0 mi North 5.8 mph - 0.00 in   Partly Cloudy
7:58 PM 77.2 °F - 73.4 °F 88% 30.03 in 10.0 mi NNE 5.8 mph - N/A   Clear
8:58 PM 76.6 °F - 72.3 °F 86% 30.01 in 10.0 mi NE 1.2 mph - N/A   Clear
9:58 PM 76.3 °F - 72.1 °F 87% 30.02 in 10.0 mi East 2.3 mph - N/A   Partly Cloudy
10:58 PM 75.6 °F - 72.7 °F 91% 30.01 in 10.0 mi ESE 2.3 mph - N/A   Clear
11:58 PM 75.4 °F - 72.9 °F 92% 30.02 in 10.0 mi Calm Calm - N/A   Mostly Cloudy